Погода в Александро-Невском

Россия / Челябинская область     53°22′51″N   59°44′11″E
темп.,
°C
ветер,
м/с
пор.,
м/с
влажн.,
%
обл.,
%
осадки,
мм/ч
давл.,
гПа
погр.,
м
11 мая, вт
вт1123:00+12вюв33570 0.0 102446
02:00+11в33660 0.0 102442
05:00+9всв12640 0.0 102610
08:00+13св34462 0.0 1027282
11:00+17в44321 0.0 10271340
14:00+19в33265 0.0 10271784
17:00+20вюв222487 0.0 10271785
20:00+18юв1133100 0.0 102711
12 мая, ср
ср1223:00+15ююв113584 0.0 102810
02:00+13ю113751 0.0 102810
05:00+11зюз114257 0.0 102910
08:00+16зюз22373 0.0 1029165
11:00+20зюз21275 0.0 10291295
14:00+23ююз01220 0.0 10281870
17:00+24ю11200 0.0 10282114
20:00+21ю22290 0.0 102712
13 мая, чт
чт1323:00+16юз33340 0.0 102826
02:00+15з33380 0.0 102828
05:00+14сз22425 0.0 102811
08:00+18ссз23475 0.0 1028195
11:00+23ссв233795 0.0 10281319
14:00+25с223084 0.0 10272248
17:00+26с12275 0.0 10262442
20:00+23всв11365 0.0 102611
14 мая, пт
пт1423:00+19ююв11445 0.0 102711
02:00+17ююв22475 0.0 102713
05:00+16ююз115048 0.0 102811
08:00+20ююз22425 0.0 1028181
11:00+25юз33315 0.0 10281016
14:00+27юз33264 0.0 10262553
17:00+27зюз44242 0.0 10262713
20:00+23зюз34320 0.0 102558
15 мая, сб
сб1523:00+19з48381 0.0 1025110
02:00+17с36570 0.0 102586
05:00+16с22570 0.0 102615
08:00+20юз11450 0.0 1026202
11:00+25юз11340 0.0 1025964
14:00+27зюз34241 0.0 10232664
17:00+28зюз44224 0.0 10222863
20:00+24з33335 0.0 102236